                ,  2.047,  2.194,  2.342,  2.490,  2.638,  2.785,  2.933,  3.081,  3.229,  3.376,  3.524,  3.672,  3.819,  3.967,  4.115,  4.263,  4.410,  4.558,  4.706,  4.853,  5.001,  5.149,  5.297,  5.444,  5.592,  5.740,  5.888,  6.035,  6.183,  6.331,  6.478,  6.626,  6.774,  6.922,  7.069,  7.217,  7.365,  7.512,  7.660,  7.808,  7.956,  8.103,  8.251,  8.399,  8.547,  8.694,  8.842,  8.990,  9.137,  9.285,  9.433,  9.581,  9.728,  9.876, 10.024, 10.171, 10.319, 10.467, 10.615, 10.762, 10.910, 11.058, 11.205, 11.353, 11.501, 11.649, 11.796, 11.944, 12.092, 12.240, 12.387, 12.535, 12.683, 12.830, 12.978, 13.126, 13.274, 13.421, 13.569, 13.717, 13.864, 14.012, 14.160, 14.308, 14.455, 14.603, 14.751, 14.899, 15.046, 15.194, 15.342, 15.489, 15.637, 15.785, 15.933, 16.080, 16.228, 16.376, 16.523, 16.671, 16.819, 16.967, 17.114, 17.262, 17.410, 17.557, 17.705, 17.853, 18.001, 18.148, 18.296, 18.444, 18.592, 18.739, 18.887, 19.035, 19.182, 19.330, 19.478, 19.626
2004/08/19 00:00,   13.3,   13.9,   13.6,   14.4,   12.6,   10.3,    9.8,    9.2,  999.0,    9.0,    9.1,    8.4,    8.0,    8.1,    7.4,    6.4,    1.6,    2.5,  999.0,    5.0,    4.7,    2.1,    0.2,   -1.5,   -1.2,    1.1,    1.7,    3.5,    5.0,    3.9,    3.5,    1.4,    0.4,   -0.9,   -1.5,   -2.7,   -2.9,   -2.6,   -0.1,    2.2,    3.7,    2.6,    1.1,   -1.1,   -2.0,   -1.1,   -1.9,   -3.0,   -2.1,   -2.2,   -1.6,   -0.7,    0.1,    0.8,    1.1,    2.0,    0.6,   -0.8,   -1.9,   -2.7,   -4.6,   -6.6,   -6.7,   -4.5,   -2.1,   -0.0,    1.0,    2.3,    4.4,    3.7,    2.0,    0.5,    0.6,   -0.9,   -1.5,  999.0,  999.0,  999.0,  999.0,  999.0,  999.0,  999.0,  999.0,  -10.7,  -13.6,  999.0,  -18.9,  -21.9,  -27.9,  999.0,  999.0,  -33.2,  -32.2,  999.0,  999.0,  999.0,  999.0,  999.0,  999.0,  999.0,  999.0,  999.0,  999.0,  999.0,  -10.5,   -8.7,   -9.1,   -8.5,  999.0,   -2.8,  999.0,  999.0,  999.0,  999.0,  999.0,  999.0,  999.0,  999.0,  999.0,  999.0
2004/08/19 00:10,   13.2,   13.9,   14.3,   14.4,   13.8,   12.5,   11.4,   11.4,   10.7,   11.1,    9.7,    8.4,    7.5,    7.5,    7.0,    6.4,    2.4,    2.1,    3.2,    3.4,    3.7,    1.9,    0.8,   -0.8,   -0.2,    1.1,    1.6,    2.4,    2.1,    1.5,    0.6,    0.5,   -0.1,   -1.9,   -1.4,   -2.6,   -3.3,   -2.5,   -1.0,    1.8,    2.7,    2.0,   -0.3,   -1.9,   -2.5,   -1.7,   -2.3,   -2.3,   -2.3,   -1.9,   -1.7,   -0.9,   -0.1,    0.6,    0.5,    0.9,   -0.3,   -1.4,   -1.7,   -3.2,   -4.7,   -6.7,   -5.7,   -5.5,   -2.9,   -0.6,    1.0,    2.1,    3.3,    3.5,    1.7,    0.9,    0.5,   -0.2,   -0.6,   -0.6,   -1.2,  999.0,  999.0,  999.0,  999.0,  999.0,   -7.5,  -10.7,  -13.8,  999.0,  -18.6,  -22.0,  -26.1,  999.0,  -37.9,  999.0,  -32.8,  999.0,  999.0,  999.0,  999.0,  999.0,  999.0,  999.0,  999.0,   -7.6,  999.0,  999.0,  -10.4,   -9.1,   -9.3,  999.0,  999.0,   -2.1,  999.0,  999.0,  999.0,  999.0,  999.0,  999.0,  999.0,  999.0,  999.0,  999.0
2004/08/19 00:20,   15.1,   15.8,   15.7,   15.1,   15.6,   13.7,   13.2,   12.9,  999.0,    9.9,   11.1,    8.5,    6.3,    5.0,    5.2,    5.3,    4.4,    2.6,    3.5,    2.1,    2.2,    1.6,    1.0,   -0.3,   -0.7,    0.5,    1.2,    1.5,    1.4,    0.6,   -0.1,   -0.4,   -1.3,   -1.9,   -2.0,   -3.2,   -3.4,   -2.6,   -0.6,    1.3,    1.9,    1.0,   -1.0,   -2.8,   -3.2,   -1.8,   -2.3,   -2.2,   -1.9,   -1.9,   -2.4,   -1.6,   -0.2,    0.2,    0.4,    0.7,   -0.1,   -0.7,   -1.6,   -3.1,   -4.4,   -5.6,   -2.8,   -3.9,   -3.2,   -0.7,    0.3,    1.4,    2.2,    3.0,    1.6,    0.9,    0.3,   -0.0,   -0.4,   -0.4,   -1.4,  999.0,  999.0,  999.0,  999.0,   -6.2,   -6.0,  999.0,  999.0,  -15.3,  -17.6,  999.0,  999.0,  -31.7,  -36.9,  -37.3,  -32.8,  999.0,  999.0,  999.0,  999.0,  999.0,  999.0,   -6.8,  999.0,   -7.5,  999.0,   -9.5,   -9.6,   -8.7,   -8.4,   -8.6,   -4.1,   -0.9,    1.1,    1.3,    1.1,  999.0,  999.0,  999.0,  999.0,  999.0,  999.0,  999.0
2004/08/19 00:30,  999.0,   16.0,   15.5,   14.6,   14.5,   13.8,   13.6,   13.0,   10.1,   12.4,   11.2,    8.7,    7.7,    5.5,    4.1,    3.9,    3.7,    3.3,    3.3,    3.1,    2.6,    0.8,    0.3,   -0.3,   -1.4,   -0.8,    0.6,    0.5,    0.8,    1.3,    0.1,   -0.9,   -2.8,   -2.4,   -1.9,   -3.2,   -2.6,   -0.6,    0.4,    2.1,    1.4,   -1.0,   -2.2,   -2.8,   -2.7,   -2.3,   -2.4,   -1.9,   -2.1,   -1.7,   -2.3,   -1.5,    0.3,   -0.1,    0.4,    0.6,    0.5,   -0.7,   -1.7,   -2.6,   -4.4,   -4.9,   -0.9,   -1.5,   -2.0,   -0.4,    0.2,    0.3,    1.3,    2.4,    0.9,    0.8,   -0.3,   -0.6,   -0.3,   -1.4,   -1.0,   -1.3,   -1.6,  999.0,   -7.0,   -3.5,   -9.9,  -11.2,  999.0,  -16.4,  -18.6,  999.0,  -26.2,  -31.6,  999.0,  999.0,  999.0,  -21.9,  999.0,  999.0,  999.0,   -6.6,  999.0,   -6.7,  999.0,  999.0,  999.0,   -9.2,   -8.6,   -8.1,   -7.7,  999.0,   -3.3,    0.2,    3.0,    1.4,    0.8,  999.0,  999.0,  999.0,  999.0,  999.0,  999.0,  999.0
2004/08/19 00:40,  999.0,   13.8,   13.7,   13.4,   13.5,   13.2,   13.0,   12.6,   13.0,   13.3,   13.1,   12.2,    9.8,    8.3,    5.6,    5.1,    3.6,    2.4,    1.9,    1.8,    1.2,   -0.1,   -1.5,   -1.5,   -1.8,   -1.5,   -1.3,   -0.5,   -0.4,   -1.1,   -2.7,   -4.3,   -6.0,   -2.4,   -2.0,   -3.8,   -2.9,   -1.5,   -0.1,    1.0,   -0.9,   -2.7,   -4.1,   -4.1,   -2.9,   -2.8,   -2.2,   -2.1,   -1.7,   -1.5,   -1.9,   -1.6,   -0.9,    0.1,    0.4,    0.9,    0.8,   -1.5,   -0.8,   -2.1,   -3.2,   -3.4,   -0.8,   -1.2,   -1.2,   -0.4,   -0.1,    0.1,    1.0,    1.5,    0.6,    0.2,   -0.1,   -0.6,   -0.6,   -1.0,   -1.1,   -1.5,   -2.9,  999.0,  999.0,   -5.3,  -10.5,  999.0,  999.0,  -17.0,  -19.6,  999.0,  999.0,  999.0,  999.0,  999.0,  999.0,  999.0,  999.0,  999.0,  999.0,  999.0,  999.0,  999.0,  999.0,  999.0,  999.0,  999.0,   -7.1,   -5.7,   -6.9,  999.0,   -3.8,   -1.0,  999.0,  999.0,    2.4,  999.0,  999.0,  999.0,  999.0,  999.0,  999.0,  999.0
2004/08/19 00:50,  999.0,  999.0,   14.2,   13.5,   13.1,   11.9,   11.6,   12.0,   12.1,   12.9,   12.3,    9.9,    9.9,    9.9,    8.0,    7.0,    4.7,    2.9,    2.5,    2.5,    0.7,   -1.2,   -2.3,   -3.4,   -3.1,   -2.6,   -1.3,   -0.9,   -1.7,   -4.3,   -5.9,   -7.1,   -6.9,   -4.2,   -4.1,   -4.0,   -3.4,   -1.7,   -0.6,    0.9,   -0.9,   -2.2,   -3.4,   -4.1,   -2.4,   -1.5,   -1.9,   -1.5,   -1.4,   -1.3,   -1.4,   -1.0,   -1.8,   -0.0,    0.1,    1.6,    1.7,   -0.2,   -0.7,   -1.1,   -1.9,   -3.0,   -0.8,   -0.8,   -1.1,   -0.1,    0.1,    0.3,    1.0,    1.7,    0.1,   -1.0,   -1.4,   -0.6,   -0.6,   -1.3,   -1.7,   -2.1,  999.0,   -5.2,  999.0,  999.0,  999.0,  -11.9,   -9.9,  -16.4,  999.0,  999.0,  999.0,  999.0,  999.0,  999.0,  999.0,  999.0,  999.0,  999.0,   -6.8,   -6.7,   -2.0,   -3.2,  999.0,  999.0,  999.0,  999.0,   -7.9,   -6.3,   -6.9,  999.0,   -6.1,  999.0,   -1.2,   -1.4,    0.3,  999.0,  999.0,  999.0,  999.0,   10.8,  999.0,  999.0
2004/08/19 01:00,   14.7,  999.0,   14.2,   15.4,   16.3,   14.9,   13.7,   12.9,   12.9,   13.0,   12.8,   11.5,    9.8,    8.1,    7.2,    7.0,    6.4,    5.2,    4.1,    2.1,   -0.2,   -1.7,   -3.6,   -2.7,   -1.9,   -2.2,   -2.4,   -2.2,   -4.4,   -6.4,   -6.1,   -6.1,   -5.6,   -5.0,   -4.8,   -4.3,   -2.9,   -1.6,   -0.9,    0.7,   -1.2,   -2.1,   -3.1,   -4.4,   -3.6,   -1.8,   -2.2,   -1.8,   -1.5,   -1.1,   -1.5,   -0.5,   -0.1,    0.4,  999.0,    2.2,    1.5,    0.0,   -0.8,   -0.6,   -1.0,   -3.0,   -0.9,   -1.2,   -1.0,   -0.1,    0.4,    0.5,    0.9,    1.7,    0.2,   -0.9,   -1.1,   -0.6,   -1.3,   -1.6,   -3.5,  999.0,  999.0,  999.0,  999.0,  999.0,  999.0,   -6.2,   -6.6,  999.0,  999.0,  999.0,  999.0,  999.0,  999.0,  999.0,  999.0,  -24.7,  -21.4,  999.0,  999.0,   -6.0,   -3.7,   -3.3,   -5.2,  999.0,  999.0,  999.0,   -8.8,   -6.8,   -7.8,  999.0,  999.0,   -4.2,   -1.1,   -0.9,    1.0,  999.0,  999.0,  999.0,  999.0,  999.0,  999.0,  999.0
2004/08/19 01:10,   15.1,   14.0,   14.2,   14.2,   15.3,   15.7,   15.4,   15.2,   14.4,   12.7,   11.9,   11.1,   10.0,    8.8,    7.4,    5.3,    4.1,    4.7,    4.5,    2.4,    0.1,   -1.2,   -2.4,   -1.3,   -1.8,   -2.4,   -3.6,   -5.9,   -8.2,   -8.7,   -6.8,   -5.9,   -5.0,   -4.8,   -5.1,   -4.9,   -2.2,   -1.2,   -0.8,    0.3,   -1.6,   -2.6,   -3.2,   -4.5,   -3.9,   -3.0,   -3.1,   -2.2,   -1.7,   -1.5,   -1.6,   -0.5,    0.1,    0.3,    1.3,    1.2,    0.8,  999.0,   -1.0,   -0.8,   -2.1,   -4.0,   -2.1,   -1.7,   -0.5,    0.2,    0.3,    0.6,    1.3,    0.3,   -0.2,   -1.0,   -1.2,   -1.3,   -0.6,   -0.3,   -3.1,  999.0,  999.0,   -5.3,  999.0,  999.0,   -4.7,   -4.3,   -6.6,  999.0,  999.0,  999.0,  999.0,  999.0,  999.0,  999.0,  999.0,  -25.0,  -22.3,  999.0,  999.0,   -7.4,   -7.5,  999.0,  999.0,  999.0,  999.0,   -8.1,   -8.8,   -6.9,   -8.0,  999.0,  999.0,  999.0,  999.0,  999.0,  999.0,  999.0,  999.0,  999.0,  999.0,  999.0,  999.0,  999.0
2004/08/19 01:20,   15.8,   15.6,   14.9,   14.4,   14.4,   15.1,   15.6,   15.8,   14.6,   13.3,   11.6,   10.2,    9.1,    8.3,    7.4,    3.4,    1.5,    2.9,    3.4,    3.9,    2.5,    0.4,   -1.0,   -1.3,   -1.2,   -1.9,   -4.1,   -8.1,   -9.8,   -9.3,   -8.3,   -6.5,   -5.6,   -5.3,   -5.5,   -5.2,   -3.9,   -2.3,   -2.0,   -1.4,   -2.1,   -3.1,   -4.1,   -5.5,   -5.1,   -3.7,   -4.2,   -3.4,   -3.1,   -3.0,   -2.1,   -1.3,   -0.6,   -0.2,    0.7,    1.7,    0.7,   -0.1,   -0.8,   -1.2,   -3.1,   -4.9,   -2.1,   -0.9,    0.1,    0.8,    0.7,    1.1,    1.1,   -0.1,   -0.2,   -1.0,   -1.1,   -1.7,   -0.9,   -1.9,   -3.7,  999.0,  999.0,  999.0,  999.0,  999.0,   -7.8,  999.0,  -13.7,  999.0,  999.0,  999.0,  999.0,  -25.8,  -31.8,  -35.3,  999.0,  -24.4,  -21.7,  -19.8,  999.0,   -7.2,   -8.6,  999.0,  999.0,  999.0,  999.0,   -9.6,   -9.6,   -8.7,   -9.1,   -6.1,   -3.3,   -0.7,  999.0,    1.0,    2.1,  999.0,  999.0,  999.0,  999.0,  999.0,  999.0,  999.0
2004/08/19 01:30,   15.9,   16.3,   16.0,   15.1,   15.5,   14.9,   14.1,   14.2,   13.3,   11.9,   10.5,    8.9,    8.4,    7.6,    6.2,    4.7,    2.7,    3.2,    2.9,    3.3,    3.3,    1.6,   -0.5,   -1.7,   -1.2,   -2.2,   -5.2,   -9.3,   -9.2,   -9.0,   -8.4,   -7.3,   -6.7,   -6.4,   -6.3,   -6.2,   -4.6,   -3.3,   -2.3,   -1.9,   -2.2,   -2.7,   -3.5,   -4.9,   -4.4,   -3.1,   -3.7,   -3.2,   -2.4,   -2.5,   -2.1,   -1.9,   -1.4,    0.7,    1.2,    1.2,    0.6,   -0.0,   -0.4,   -1.3,   -2.3,   -3.9,   -1.2,   -0.6,   -0.1,    0.5,    0.6,    0.7,    1.1,    0.2,    0.2,   -1.2,   -2.6,   -2.4,   -2.0,   -4.3,  999.0,  999.0,  999.0,  999.0,  999.0,   -6.6,  999.0,   -7.0,  -10.2,  -16.8,  999.0,  999.0,  999.0,  -24.9,  -29.6,  -33.9,  999.0,  -26.4,  -21.8,  -18.4,  999.0,  999.0,   -7.9,  999.0,  999.0,  999.0,  999.0,   -9.7,   -8.7,   -9.0,   -8.8,  999.0,  999.0,  999.0,  999.0,    0.9,    1.8,  999.0,  999.0,  999.0,  999.0,  999.0,  999.0,  999.0
2004/08/19 01:40,   16.0,   16.6,   15.2,   15.6,   15.7,   14.8,   12.8,   13.5,   12.9,   10.8,    9.3,    8.3,    8.2,    7.3,    5.6,    5.1,    3.8,    3.2,    3.1,    2.5,    2.7,    2.1,   -0.5,   -1.5,   -1.4,   -2.7,   -7.1,   -8.6,   -7.9,   -7.8,   -7.5,   -7.7,   -6.9,   -6.2,   -5.8,   -5.7,   -4.8,   -4.1,   -3.9,   -3.0,   -2.1,   -2.3,   -3.5,   -4.3,   -3.1,   -2.8,   -3.1,   -2.8,   -2.6,   -2.1,   -2.4,   -2.4,   -1.5,    0.1,    0.8,    0.7,    0.4,  999.0,   -1.4,   -1.5,   -2.8,   -3.8,   -1.1,   -0.7,   -0.5,    0.2,    0.9,    1.3,    1.7,    1.0,    0.1,   -1.5,   -2.6,   -3.2,   -3.6,  999.0,   -4.5,  999.0,  999.0,  999.0,  999.0,  999.0,  999.0,  999.0,  999.0,  999.0,  999.0,  999.0,  -23.3,  -27.6,  -33.4,  999.0,  -27.5,  -25.3,  -20.6,  -18.3,  999.0,  999.0,  999.0,  999.0,  999.0,  999.0,  999.0,  999.0,   -8.5,   -7.9,   -7.1,  999.0,  999.0,    2.8,  999.0,    0.5,  999.0,  999.0,  999.0,  999.0,  999.0,  999.0,  999.0,  999.0
2004/08/19 01:50,  999.0,   15.1,   15.4,   15.6,   15.5,   14.6,   12.7,   12.4,   12.1,    9.4,    7.6,    7.0,    6.5,    6.4,    6.7,    5.2,    2.7,    4.3,    4.1,    1.6,    1.2,    0.5,   -0.3,   -1.2,   -1.8,   -2.1,   -4.8,   -6.1,   -6.5,   -7.0,   -7.9,   -8.2,   -8.9,   -7.4,   -6.1,   -6.2,   -5.6,   -4.5,   -4.6,   -3.7,   -2.5,   -2.1,   -3.5,   -4.9,   -3.9,   -3.0,   -2.7,   -2.6,   -2.3,   -3.1,   -2.1,   -1.4,   -1.4,    0.0,    1.1,  999.0,    1.3,    0.4,  999.0,   -0.2,   -1.1,   -1.6,   -1.0,   -1.0,   -0.4,    0.6,    0.8,    0.9,    1.6,    1.1,    0.3,   -0.7,   -2.2,   -2.0,   -1.8,   -2.2,   -5.3,   -6.3,  999.0,  999.0,  999.0,  999.0,   -5.4,   -6.4,  999.0,  999.0,  999.0,  999.0,  -25.7,  -29.9,  999.0,  -33.4,  -26.7,  -24.0,  -19.1,  999.0,  999.0,   -7.3,   -5.1,   -4.6,  999.0,   -6.2,  999.0,  999.0,   -7.5,   -6.2,   -6.2,  999.0,    0.4,    0.3,    5.4,    0.5,  999.0,  999.0,  999.0,  999.0,  999.0,  999.0,  999.0,  999.0
2004/08/19 02:00,   16.3,   15.5,   14.9,   15.0,   14.1,   14.6,   12.9,   11.0,   10.6,    7.6,    6.3,    6.5,    6.2,    6.6,    7.0,    4.8,    2.3,    3.9,    2.4,    1.4,    0.6,   -1.0,   -1.7,   -2.4,   -2.0,   -1.7,   -4.1,   -5.6,   -6.6,   -6.3,   -7.8,   -8.9,   -9.6,   -9.4,   -7.8,   -7.1,   -5.9,   -5.5,   -5.4,   -5.4,   -4.2,   -2.7,   -4.1,   -4.7,   -4.7,   -2.9,   -2.7,   -2.1,   -1.7,   -1.9,   -1.3,   -1.0,   -0.8,    0.2,    0.9,    0.8,    0.5,    0.7,   -0.2,   -0.8,   -1.2,   -2.8,   -1.1,   -0.9,   -0.6,    0.7,    1.0,    0.6,    1.2,    0.6,   -0.6,   -2.2,   -2.5,   -1.9,   -3.0,   -4.7,   -5.8,  999.0,   -9.8,  999.0,  999.0,  999.0,   -5.9,   -6.7,  999.0,  999.0,  999.0,  999.0,  -24.6,  -30.8,  999.0,  -32.2,  -27.1,  -23.1,  -21.2,  999.0,  999.0,   -4.6,   -5.1,   -5.6,  999.0,  999.0,  999.0,  999.0,   -7.4,   -6.2,   -6.4,  999.0,   -2.7,    1.0,  999.0,    0.1,  999.0,  999.0,  999.0,  999.0,  999.0,  999.0,  999.0,  999.0
2004/08/19 02:10,  999.0,   16.5,   14.6,   14.4,   14.5,   13.9,   12.0,    9.9,    8.9,    7.4,    6.0,    5.7,    5.2,    5.8,    5.9,    3.8,    3.5,    3.7,    2.5,    3.1,   -0.0,   -1.7,   -1.7,   -1.8,   -1.6,   -0.9,   -2.3,   -4.3,   -5.2,   -5.9,   -7.5,   -7.9,   -8.4,   -8.6,   -8.2,   -8.0,   -6.9,   -5.7,   -5.8,   -5.6,   -4.2,   -2.8,   -3.3,   -3.9,   -3.6,   -2.0,   -1.4,   -1.1,   -0.9,   -0.9,   -1.6,   -1.4,   -1.1,    0.2,    0.8,    0.3,    0.7,    0.6,    0.2,   -0.4,   -1.2,   -1.2,   -0.9,   -1.0,   -0.7,   -0.1,    0.7,    0.3,    1.0,    0.6,   -0.7,   -2.2,   -2.7,   -3.9,   -4.0,   -4.5,  999.0,  999.0,   -8.8,  999.0,  999.0,  999.0,  999.0,  999.0,  999.0,  999.0,  999.0,  999.0,  -24.9,  999.0,  999.0,  999.0,  -26.3,  999.0,  -19.6,  999.0,  999.0,   -7.4,   -5.7,  999.0,  999.0,  999.0,  999.0,  999.0,   -7.3,   -6.0,   -5.7,  999.0,  999.0,    1.0,  999.0,  999.0,  999.0,  999.0,  999.0,  999.0,  999.0,  999.0,  999.0,  999.0
2004/08/19 02:20,   17.2,   15.7,   15.6,   14.5,   13.6,   13.5,   11.6,   10.0,    7.7,    6.5,    5.9,    4.9,    5.9,    5.5,    4.4,    2.3,    1.7,    2.8,    2.2,    1.9,    0.2,   -1.0,   -1.0,   -1.3,   -0.4,   -0.4,   -2.0,   -3.5,   -5.1,   -6.1,   -7.8,   -8.6,   -8.8,   -8.7,   -8.9,   -8.9,   -8.3,   -6.5,   -6.2,   -6.3,   -4.5,   -3.6,   -3.8,   -4.7,   -4.0,   -2.9,   -2.0,   -1.3,   -0.9,   -0.9,   -1.6,  999.0,   -0.6,   -0.3,    0.6,    0.9,    0.6,    0.5,    0.6,    0.4,   -0.8,   -0.5,   -0.8,   -1.2,   -1.1,   -0.3,    0.3,    0.3,    0.4,    0.0,   -0.7,   -2.1,   -2.1,   -2.8,   -2.9,   -2.6,   -3.3,   -4.7,  999.0,  999.0,  999.0,   -6.3,  999.0,   -0.1,  999.0,   -0.5,  999.0,  999.0,  999.0,  999.0,  999.0,  999.0,  -26.2,  -21.4,  -17.8,  999.0,   -9.0,   -4.9,   -5.0,  999.0,  999.0,  999.0,  999.0,  999.0,   -5.8,   -6.2,   -5.2,  999.0,   -1.0,  999.0,  999.0,  999.0,   -1.5,  999.0,  999.0,  999.0,  999.0,  999.0,  999.0,  999.0
2004/08/19 02:30,   15.7,   14.8,   15.3,   14.3,   13.7,   13.3,   12.5,   10.7,    8.5,    7.2,    5.4,    4.4,    5.1,    3.5,    2.6,    2.0,    1.5,    1.9,    1.9,    2.0,    1.3,   -0.2,   -0.5,    0.1,    0.8,    0.7,   -0.4,   -3.4,   -4.3,   -5.5,   -6.5,   -8.0,   -8.9,   -9.3,   -9.8,   -9.3,   -9.3,   -8.0,   -7.2,   -6.7,   -5.3,   -4.7,   -4.5,   -5.2,   -5.2,   -4.7,   -2.9,   -1.5,   -1.4,   -0.7,   -0.9,   -0.3,   -0.7,   -0.5,    0.3,    0.9,   -0.1,   -0.0,  999.0,    0.5,   -0.8,   -0.7,   -0.8,   -1.6,   -0.8,   -0.2,    0.1,    0.2,   -0.1,   -0.1,   -0.6,   -2.1,   -2.5,   -1.0,   -1.9,   -1.7,  999.0,   -5.0,  999.0,  999.0,  999.0,  999.0,    0.5,    0.1,  999.0,  999.0,  -10.3,  999.0,  999.0,  999.0,  999.0,  999.0,  999.0,  999.0,  999.0,  999.0,  999.0,   -5.5,   -4.7,  999.0,  999.0,  999.0,  999.0,  999.0,   -6.2,   -5.7,   -7.0,  999.0,  999.0,  999.0,  999.0,  999.0,  999.0,  999.0,  999.0,  999.0,  999.0,  999.0,  999.0,  999.0
2004/08/19 02:40,   13.6,   17.1,   16.3,   15.6,   15.2,   14.3,   13.4,   11.5,    9.6,    7.8,    5.8,    3.5,    3.3,    2.8,    1.8,    1.7,    0.8,    1.0,    1.7,    2.2,    1.5,    0.8,    0.3,    1.1,    1.1,    0.9,   -0.2,   -2.8,   -3.9,   -5.2,   -6.1,   -7.2,   -8.1,   -9.3,  -10.3,  -10.3,   -9.8,   -9.8,   -8.4,   -6.8,   -5.7,   -4.8,   -4.6,   -4.7,   -4.7,   -4.0,   -1.7,   -1.2,   -0.7,   -0.1,   -0.5,   -0.2,   -0.2,    0.4,    0.7,    0.6,    0.8,    0.4,   -0.0,   -0.5,   -0.7,   -1.0,   -0.9,   -1.0,   -0.4,   -0.1,    0.2,    0.1,    0.3,   -0.3,   -0.5,   -2.0,   -2.8,  999.0,   -1.1,   -0.4,   -2.0,  999.0,   -1.9,  999.0,  999.0,   -0.3,   -0.2,    0.1,   -0.3,    0.2,  999.0,  999.0,  999.0,  999.0,  999.0,  999.0,  999.0,  999.0,   -8.3,  999.0,  999.0,   -3.6,   -2.8,  999.0,  999.0,  999.0,  999.0,  999.0,   -6.2,   -5.5,   -4.9,  999.0,  999.0,  999.0,  999.0,  999.0,    1.8,  999.0,  999.0,  999.0,  999.0,  999.0,  999.0,  999.0
2004/08/19 02:50,   11.3,   13.7,   13.1,   17.2,   18.1,   16.3,   14.6,   12.2,   10.4,    8.0,    5.9,    4.5,    2.4,    2.7,    2.0,    2.5,    1.7,    1.3,    1.5,    2.3,    3.1,    2.8,    1.1,    1.6,    0.8,   -1.0,   -3.3,   -5.2,   -5.7,   -6.2,   -6.8,   -7.4,   -8.2,   -9.8,  -10.3,   -9.8,   -8.5,   -9.1,   -9.2,   -6.0,   -4.8,   -4.0,   -4.2,   -4.3,   -4.0,   -2.7,   -2.0,   -1.3,   -0.3,   -0.9,   -0.4,   -0.7,   -0.1,    0.5,   -0.3,   -0.1,   -1.3,   -0.4,   -0.9,   -0.8,   -0.9,   -1.4,   -0.5,   -0.2,   -0.0,   -0.0,    0.2,   -0.1,    0.1,   -0.2,   -0.8,   -1.7,   -3.4,   -3.3,   -1.2,   -1.2,  999.0,  999.0,   -1.9,  999.0,  999.0,  999.0,    0.1,    0.4,  999.0,  999.0,  999.0,  -12.2,  -15.4,  999.0,  -18.2,  999.0,  999.0,  999.0,  999.0,  999.0,  999.0,   -4.6,   -4.3,  999.0,   -2.5,  999.0,  999.0,  999.0,   -7.0,   -5.4,   -5.9,  999.0,  999.0,  999.0,  999.0,  999.0,  999.0,  999.0,  999.0,  999.0,  999.0,  999.0,  999.0,  999.0
2004/08/19 03:00,   10.7,   13.0,  999.0,   19.3,   18.1,   16.7,   15.0,   12.4,    9.9,    7.6,    6.0,    3.8,    3.2,    2.8,    2.7,    3.1,    1.7,    1.7,    1.6,    2.0,    2.5,    2.0,    1.0,    1.1,    0.7,   -0.5,   -2.4,   -4.3,   -5.5,   -6.6,   -7.5,   -8.2,   -8.3,   -9.7,   -9.6,   -9.0,   -7.8,   -8.4,   -7.3,   -4.7,   -3.6,   -3.6,   -4.1,   -4.0,   -3.6,   -2.1,   -1.7,   -1.0,   -0.4,   -1.0,   -0.4,   -0.7,   -0.5,   -0.3,   -0.3,   -0.2,   -0.6,   -0.7,   -0.8,   -0.5,   -0.9,   -1.4,   -0.3,   -0.3,   -0.4,    0.1,    0.0,    0.0,    0.3,   -0.3,   -1.1,   -2.4,   -3.9,  999.0,   -1.2,  999.0,    0.2,  999.0,  999.0,  999.0,  999.0,  999.0,   -0.3,    0.1,  999.0,  999.0,  -12.4,  -13.5,  -15.6,  999.0,  999.0,  999.0,  999.0,  999.0,  999.0,  999.0,  999.0,   -5.2,  999.0,  999.0,  999.0,  999.0,  999.0,  999.0,   -6.8,   -5.8,   -5.4,  999.0,  999.0,  999.0,  999.0,    2.2,  999.0,  999.0,  999.0,  999.0,  999.0,  999.0,  999.0,  999.0
2004/08/19 03:10,   11.1,   12.9,   13.6,  999.0,  999.0,   17.6,   16.0,   13.9,   11.3,    8.4,    5.5,    3.6,    3.1,    3.0,    3.0,    4.0,    2.0,    2.7,    2.6,    3.1,    2.9,    2.6,    1.3,    0.9,   -0.1,   -0.6,   -1.4,   -3.3,   -5.0,   -6.5,   -7.8,   -9.2,   -9.6,   -9.9,   -9.8,   -9.1,   -9.1,   -8.6,   -6.6,   -5.0,   -4.4,   -3.7,   -4.7,   -4.6,   -3.6,   -2.8,   -1.7,   -0.8,   -0.4,   -0.8,   -0.7,   -1.1,   -0.4,   -0.6,   -0.5,   -0.4,   -0.6,   -1.1,   -0.9,   -0.4,   -1.2,   -1.8,   -0.9,   -0.7,   -0.6,   -0.0,   -0.0,   -0.2,   -0.0,   -0.5,   -1.0,   -2.7,   -3.1,   -4.6,   -0.6,   -2.7,  999.0,    0.4,  999.0,  999.0,  999.0,  999.0,    0.2,   -0.1,  999.0,  999.0,  -10.9,  999.0,  999.0,  999.0,  999.0,  999.0,  999.0,  999.0,  999.0,  999.0,  999.0,   -5.6,  999.0,  999.0,  999.0,  999.0,  999.0,  999.0,   -7.8,   -6.0,   -6.3,  999.0,  999.0,  999.0,  999.0,  999.0,  999.0,  999.0,  999.0,  999.0,  999.0,  999.0,  999.0,  999.0
2004/08/19 03:20,   11.5,   13.3,   13.9,   13.4,  999.0,  999.0,   16.2,   14.6,   12.8,   10.7,    7.0,    4.1,    3.0,    2.7,    2.3,    2.5,    1.9,    3.4,    3.6,    4.2,    5.5,    5.7,    3.6,    2.9,    1.3,   -0.3,   -0.9,   -1.9,   -4.4,   -5.7,   -7.9,   -9.8,  -11.0,  -10.9,  -10.2,  -10.1,   -9.7,   -8.2,   -6.5,   -5.4,   -4.6,   -4.4,   -4.8,   -4.8,   -4.6,   -4.2,   -2.8,   -1.7,   -0.9,   -1.3,   -1.8,   -1.0,   -0.9,   -1.0,   -1.4,   -1.4,   -1.4,   -2.4,   -1.4,   -0.7,   -2.5,   -3.7,   -1.7,   -1.0,   -1.1,   -0.2,   -0.2,   -0.3,   -0.0,   -0.6,   -0.6,   -2.2,   -4.6,   -4.2,   -3.0,  999.0,    0.5,  999.0,  999.0,  999.0,  999.0,  999.0,   -0.3,  999.0,   -8.0,  999.0,  -10.7,  999.0,  999.0,  999.0,  999.0,  999.0,  999.0,  999.0,  999.0,  999.0,  999.0,  999.0,   -6.7,  999.0,  999.0,  999.0,  999.0,  999.0,   -7.1,   -4.4,   -6.2,   -4.8,  999.0,  999.0,  999.0,  999.0,  999.0,  999.0,  999.0,  999.0,  999.0,  999.0,  999.0,  999.0
2004/08/19 03:30,  999.0,  999.0,  999.0,  999.0,  999.0,  999.0,  999.0,  999.0,  999.0,  999.0,  999.0,  999.0,  999.0,  999.0,  999.0,  999.0,  999.0,  999.0,  999.0,  999.0,  999.0,  999.0,  999.0,  999.0,  999.0,  999.0,  999.0,  999.0,  999.0,  999.0,  999.0,  999.0,  999.0,  999.0,  999.0,  999.0,  999.0,  999.0,  999.0,  999.0,  999.0,  999.0,  999.0,  999.0,  999.0,  999.0,  999.0,  999.0,  999.0,  999.0,  999.0,  999.0,  999.0,  999.0,  999.0,  999.0,  999.0,  999.0,  999.0,  999.0,  999.0,  999.0,  999.0,  999.0,  999.0,  999.0,  999.0,  999.0,  999.0,  999.0,  999.0,  999.0,  999.0,  999.0,  999.0,  999.0,  999.0,  999.0,  999.0,  999.0,  999.0,  999.0,  999.0,  999.0,  999.0,  999.0,  999.0,  999.0,  999.0,  999.0,  999.0,  999.0,  999.0,  999.0,  999.0,  999.0,  999.0,  999.0,  999.0,  999.0,  999.0,  999.0,  999.0,  999.0,  999.0,  999.0,  999.0,  999.0,  999.0,  999.0,  999.0,  999.0,  999.0,  999.0,  999.0,  999.0,  999.0,  999.0,  999.0,  999.0
2004/08/19 03:40,   18.6,  999.0,  999.0,  999.0,  999.0,   15.9,   15.3,   14.8,   12.8,   10.6,    7.8,    5.8,    4.7,    3.1,    2.0,    1.2,    1.5,    3.8,    3.3,    2.6,    3.0,    4.1,    3.9,    1.6,   -0.1,   -0.6,   -1.1,   -1.9,   -3.6,   -5.5,   -8.3,   -8.7,   -9.3,  -10.5,  -11.8,  -11.6,  -11.1,  -10.3,   -7.8,   -6.3,   -5.7,   -5.3,   -5.3,   -5.3,   -5.6,   -5.7,   -5.0,   -2.5,   -1.9,   -1.7,  999.0,   -1.8,   -1.3,   -0.3,   -0.8,   -0.7,  999.0,   -0.4,   -0.8,   -2.0,   -2.5,   -2.6,   -0.7,   -0.7,    0.3,    0.1,    0.2,    0.4,   -0.6,   -1.2,   -1.5,   -5.0,  999.0,  999.0,    0.2,   -3.5,   -3.6,  999.0,  999.0,  999.0,  999.0,  999.0,  999.0,   -0.4,  999.0,   -8.0,   -9.9,  999.0,  999.0,  999.0,  999.0,  999.0,  999.0,  999.0,  999.0,  999.0,  999.0,  999.0,   -6.4,  999.0,  999.0,  999.0,  999.0,  999.0,   -6.1,   -5.6,  999.0,  999.0,  999.0,  999.0,  999.0,  999.0,  999.0,  999.0,  999.0,  999.0,  999.0,  999.0,  999.0,  999.0
2004/08/19 03:50,  999.0,  999.0,  999.0,  999.0,  999.0,  999.0,  999.0,  999.0,  999.0,  999.0,  999.0,  999.0,  999.0,  999.0,  999.0,  999.0,  999.0,  999.0,  999.0,  999.0,  999.0,  999.0,  999.0,  999.0,  999.0,  999.0,  999.0,  999.0,  999.0,  999.0,  999.0,  999.0,  999.0,  999.0,  999.0,  999.0,  999.0,  999.0,  999.0,  999.0,  999.0,  999.0,  999.0,  999.0,  999.0,  999.0,  999.0,  999.0,  999.0,  999.0,  999.0,  999.0,  999.0,  999.0,  999.0,  999.0,  999.0,  999.0,  999.0,  999.0,  999.0,  999.0,  999.0,  999.0,  999.0,  999.0,  999.0,  999.0,  999.0,  999.0,  999.0,  999.0,  999.0,  999.0,  999.0,  999.0,  999.0,  999.0,  999.0,  999.0,  999.0,  999.0,  999.0,  999.0,  999.0,  999.0,  999.0,  999.0,  999.0,  999.0,  999.0,  999.0,  999.0,  999.0,  999.0,  999.0,  999.0,  999.0,  999.0,  999.0,  999.0,  999.0,  999.0,  999.0,  999.0,  999.0,  999.0,  999.0,  999.0,  999.0,  999.0,  999.0,  999.0,  999.0,  999.0,  999.0,  999.0,  999.0,  999.0,  999.0
2004/08/19 04:00,   18.3,   20.2,  999.0,   20.5,   19.3,   18.1,   14.1,   13.9,   12.0,   10.8,    9.2,    6.7,    4.8,    3.3,    2.0,    1.9,    0.9,    2.4,    1.5,    2.0,    2.7,    2.7,    2.7,    1.3,   -0.6,   -1.0,   -0.7,   -1.6,   -4.0,   -4.9,   -6.8,   -7.8,   -9.0,   -8.9,  -10.0,  -10.9,  -10.7,   -9.5,   -8.8,   -6.1,   -4.9,   -4.9,   -5.1,   -5.2,   -3.9,   -3.9,   -3.8,   -4.3,   -3.7,   -2.3,   -1.9,   -2.1,   -1.6,   -1.6,   -2.2,   -1.7,   -1.1,   -1.1,   -2.4,   -3.8,   -4.1,   -2.1,   -0.9,    0.2,    0.4,    0.5,    0.2,   -0.3,   -0.8,   -1.7,   -1.9,   -4.8,   -6.6,   -4.1,  999.0,  999.0,  999.0,  999.0,  999.0,  999.0,   -6.8,  999.0,   -9.1,  999.0,  999.0,  -17.8,  -19.0,  -26.5,  -28.1,  -33.2,  999.0,  999.0,  999.0,  999.0,  999.0,  -10.2,  -10.3,   -5.9,   -5.7,  999.0,  999.0,  999.0,   -6.8,  999.0,   -6.7,   -5.7,  999.0,  999.0,  999.0,  999.0,  999.0,  999.0,  999.0,  999.0,  999.0,  999.0,  999.0,  999.0,  999.0,  999.0
2004/08/19 04:10,   18.3,   19.8,   20.2,   20.4,   19.7,  999.0,   15.2,   13.8,   11.9,   10.4,    8.6,    6.2,    4.5,    2.5,    3.1,    2.4,    1.2,    1.9,    1.2,    1.9,    2.9,    2.5,    1.4,   -0.4,   -0.8,   -0.7,   -0.8,   -1.3,   -3.7,   -4.9,   -5.8,   -7.2,   -8.1,   -8.2,   -9.3,  -10.4,  -10.3,   -9.2,   -8.1,   -6.2,   -3.9,   -3.6,   -4.5,   -4.2,   -3.6,   -2.9,   -2.5,   -3.3,   -2.9,   -1.9,   -1.4,   -1.2,   -1.1,   -1.4,   -1.9,   -1.3,   -0.9,   -1.4,   -2.0,   -2.9,   -3.2,   -1.9,   -0.6,    0.5,    1.1,    0.5,    0.3,   -0.8,   -1.1,   -1.7,   -2.7,   -5.4,   -7.0,  999.0,  999.0,  999.0,  999.0,  999.0,  999.0,  999.0,  999.0,  999.0,  999.0,  999.0,  999.0,  999.0,  999.0,  -26.8,  -31.1,  -35.1,  999.0,  999.0,  999.0,  999.0,  999.0,  999.0,  999.0,  999.0,   -6.0,  999.0,  999.0,  999.0,  999.0,  999.0,   -4.8,   -5.0,  999.0,  999.0,  999.0,  999.0,  999.0,  999.0,    2.4,  999.0,  999.0,  999.0,  999.0,  999.0,  999.0,  999.0
2004/08/19 04:20,   18.6,   20.2,   19.9,  999.0,  999.0,  999.0,   16.3,   14.0,   11.8,   10.7,    8.3,    6.6,    4.2,    2.8,    2.5,    2.4,    1.2,    1.4,    1.1,    2.5,    2.4,    1.5,    0.4,   -0.8,   -0.8,   -0.7,   -0.8,   -1.3,   -3.6,   -4.4,   -5.6,   -7.1,   -7.8,   -8.1,   -8.8,   -9.7,   -9.6,   -9.0,   -7.9,   -6.4,   -3.6,   -3.1,   -3.9,   -3.8,   -4.0,   -3.0,   -3.0,   -3.1,   -2.9,   -2.1,   -1.5,   -1.5,   -1.3,   -1.6,   -2.3,   -1.5,   -1.2,   -1.5,   -2.0,   -2.7,   -2.7,   -1.6,   -0.3,    0.7,    0.8,    0.8,    1.0,   -0.3,   -1.2,   -1.7,   -2.1,  999.0,  999.0,  999.0,  999.0,   -7.1,  999.0,   -5.6,  999.0,   -5.5,   -5.9,  999.0,   -7.4,   -8.2,  999.0,  999.0,  -26.5,  -28.7,  -31.1,  -34.3,  999.0,  -28.1,  999.0,  -20.1,  999.0,  999.0,  999.0,   -6.2,  999.0,  999.0,  999.0,  999.0,  999.0,   -6.0,   -4.7,   -5.1,  999.0,  999.0,  999.0,  999.0,  999.0,  999.0,  999.0,  999.0,  999.0,  999.0,  999.0,  999.0,  999.0,  999.0
2004/08/19 04:30,   18.6,  999.0,   19.9,   20.1,   19.1,   18.4,   17.4,   14.1,   13.2,   11.1,    9.5,    7.8,    5.9,    3.7,    2.2,    2.1,    1.1,    1.5,    1.4,    2.7,    1.8,    0.5,   -0.2,   -0.9,   -1.0,   -0.8,   -1.0,   -1.7,   -3.4,   -4.0,   -5.0,   -6.7,   -7.0,   -7.3,   -7.5,   -8.8,   -8.9,   -8.6,   -7.0,   -4.9,   -2.3,   -2.9,   -3.6,   -3.7,   -3.6,   -2.6,   -3.0,   -3.2,   -3.0,   -2.1,   -2.2,   -2.3,   -2.1,   -2.4,   -2.9,   -2.5,   -1.9,   -1.9,   -2.1,   -3.2,   -2.8,   -1.8,   -0.4,    0.3,    0.2,    0.8,    0.4,   -0.2,   -1.2,   -2.3,   -1.8,  999.0,  999.0,  999.0,  999.0,   -3.6,  999.0,  999.0,  999.0,  999.0,  999.0,  999.0,  999.0,  999.0,  999.0,  999.0,  999.0,  999.0,  999.0,  999.0,  999.0,  999.0,  999.0,  -14.2,  999.0,  999.0,  999.0,   -6.1,  999.0,  999.0,  999.0,  999.0,  999.0,  999.0,   -5.9,   -6.0,  999.0,  999.0,  999.0,  999.0,  999.0,  999.0,  999.0,  999.0,  999.0,  999.0,  999.0,  999.0,  999.0,  999.0
2004/08/19 04:40,   18.8,   19.9,   20.1,   19.3,   18.4,   17.9,   17.4,   13.5,   13.3,   10.8,    9.3,    8.1,    5.9,    4.4,    2.8,    1.5,    1.0,    0.8,    1.1,    2.5,    2.1,    1.0,    0.1,   -0.4,   -0.9,   -1.6,   -1.6,   -2.2,   -3.4,   -4.5,   -5.1,   -6.8,   -7.0,   -7.5,   -8.1,   -9.1,   -9.3,   -8.6,   -7.1,   -4.0,   -2.0,   -2.7,   -3.4,   -4.0,   -3.2,   -2.6,   -2.5,   -2.6,   -2.8,   -1.9,   -1.6,   -2.3,   -1.9,   -1.5,   -1.7,   -1.8,   -1.1,   -1.5,   -1.5,   -2.4,   -2.3,   -0.7,    0.3,    0.7,    0.3,    0.7,   -0.2,   -0.5,   -1.3,   -2.2,   -1.2,  999.0,  999.0,  999.0,  999.0,  999.0,  999.0,  999.0,  999.0,  999.0,  999.0,  999.0,  999.0,  999.0,  999.0,  999.0,  999.0,  999.0,  999.0,  999.0,  999.0,  999.0,  -10.6,  999.0,  999.0,  999.0,  999.0,  999.0,   -6.2,  999.0,  999.0,  999.0,   -6.0,  999.0,  999.0,   -4.9,   -4.2,  999.0,  999.0,  999.0,  999.0,  999.0,  999.0,  999.0,  999.0,  999.0,  999.0,  999.0,  999.0,  999.0
